TIME,�g�[�{�C���[-���� [L],�t���O,�����{�C���[-���� [L],�t���O,�g�[�{�C���[-���� [MJ/h],�t���O,�����{�C���[-���� [MJ/h],�t���O
2004/3/1 0:00,0.102717956,0,0,0,15.078996,0,0,0
2004/3/1 0:15,0.068103025,0,0.086456975,0,9.997524,0,12.691884,0
2004/3/1 0:30,0.092575014,0,0,0,13.590012,0,0,0
2004/3/1 0:45,0.087745014,0,0,0,12.880968,0,0,0
2004/3/1 1:00,0.081626975,0,0,0,11.98284,0,0,0
2004/3/1 1:15,0.091286975,0,0,0,13.400928,0,0,0
2004/3/1 1:30,0.083398038,0,0,0,12.242832,0,0,0
2004/3/1 1:45,0.10561594,0,0,0,15.50442,0,0,0
2004/3/1 2:00,0.077923978,0,0,0,11.43924,0,0,0
2004/3/1 2:15,0.097083025,0,0.009498965,0,14.251788,0,1.394448,0
2004/3/1 2:30,0.09386297,0,0.000483025,0,13.779084,0,0.070908,0
2004/3/1 2:45,0.103362098,0,0,0,15.173556,0,0,0
2004/3/1 3:00,0.09869297,0,0,0,14.488128,0,0,0
2004/3/1 3:15,0.093380027,0,0,0,13.708188,0,0,0
2004/3/1 3:30,0.098210027,0,0,0,14.417232,0,0,0
2004/3/1 3:45,0.101108011,0,0.016100027,0,14.842656,0,2.363484,0
2004/3/1 4:00,0.094507112,0,0,0,13.873644,0,0,0
2004/3/1 4:15,0.103684005,0,0,0,15.220812,0,0,0
2004/3/1 4:30,0.102073978,0,0,0,14.98446,0,0,0
2004/3/1 4:45,0.127028992,0,0,0,18.647856,0,0,0
2004/3/1 5:00,0.101912943,0,0,0,14.96082,0,0,0
2004/3/1 5:15,0.110607057,0,0,0,16.237116,0,0,0
2004/3/1 5:30,0.107547956,0,0,0,15.78804,0,0,0
2004/3/1 5:45,0.122037956,0,0,0,17.915172,0,0,0
2004/3/1 6:00,0.116563978,0,0,0,17.111592,0,0,0
2004/3/1 6:15,0.10143,0,0,0,14.889924,0,0,0
2004/3/1 6:30,0.117530027,0,0,0,17.253408,0,0,0
2004/3/1 6:45,0.112378038,0,0.511174905,0,16.497096,0,75.040476,0
2004/3/1 7:00,0.126867956,0,0.085491008,0,18.624216,0,12.55008,0
2004/3/1 7:15,0.108191935,0,0.012719019,0,15.882576,0,1.867152,0
2004/3/1 7:30,0.123486948,0,0.035097956,0,18.127884,0,5.15238,0
2004/3/1 7:45,0.106581989,0,0.058443025,0,15.646236,0,8.579436,0
2004/3/1 8:00,0.126706921,0,0.301231063,0,18.600576,0,44.22072,0
2004/3/1 8:15,0.127190027,0,0.016905041,0,18.671496,0,2.48166,0
2004/3/1 8:30,0.126867956,0,0.033488011,0,18.624216,0,4.91604,0
2004/3/1 8:45,0.126867956,0,0,0,18.624216,0,0,0
2004/3/1 9:00,0.127028992,0,0.005795967,0,18.647856,0,0.850848,0
2004/3/1 9:15,0.101268965,0,0,0,14.866284,0,0,0
2004/3/1 9:30,0.088872016,0,0,0,13.046412,0,0,0
2004/3/1 9:45,0.064078038,0,0,0,9.406656,0,0,0
2004/3/1 10:00,0.060535995,0,0.00966,0,8.886684,0,1.418088,0
2004/3/1 10:15,0.060535995,0,0,0,8.886684,0,0,0
2004/3/1 10:30,0.075669973,0,0,0,11.108352,0,0,0
2004/3/1 10:45,0.079694959,0,0,0,11.69922,0,0,0
2004/3/1 11:00,0.084685995,0,0,0,12.431904,0,0,0
2004/3/1 11:15,0.070195995,0,0,0,10.304772,0,0,0
2004/3/1 11:30,0.066009973,0,0.015133978,0,9.690264,0,2.221668,0
2004/3/1 11:45,0.072611035,0,0,0,10.6593,0,0,0
2004/3/1 12:00,0.072611035,0,0,0,10.6593,0,0,0
2004/3/1 12:15,0.081627057,0,0,0,11.982852,0,0,0
2004/3/1 12:30,0.082753978,0,0,0,12.148284,0,0,0
2004/3/1 12:45,0.096277929,0,0,0,14.1336,0,0,0
2004/3/1 13:00,0.078084932,0,0,0,11.462868,0,0,0
2004/3/1 13:15,0.070839973,0,0,0,10.399308,0,0,0
2004/3/1 13:30,0.103200981,0,0.012879973,0,15.149904,0,1.89078,0
2004/3/1 13:45,0.091448011,0,0.016100027,0,13.424568,0,2.363484,0
2004/3/1 14:00,0.093218992,0,0,0,13.684548,0,0,0
2004/3/1 14:15,0.083880981,0,0,0,12.313728,0,0,0
2004/3/1 14:30,0.116886049,0,0,0,17.158872,0,0,0
2004/3/1 14:45,0.107547956,0,0,0,15.78804,0,0,0
2004/3/1 15:00,0.109319019,0,0,0,16.048032,0,0,0
2004/3/1 15:15,0.109962997,0,0,0,16.142568,0,0,0
2004/3/1 15:30,0.108030981,0,0,0,15.858948,0,0,0
2004/3/1 15:45,0.102235014,0,0.028658011,0,15.0081,0,4.206996,0
2004/3/1 16:00,0.107870027,0,0,0,15.83532,0,0,0
2004/3/1 16:15,0.100946894,0,0,0,14.819004,0,0,0
2004/3/1 16:30,0.126384932,0,0.129766022,0,18.553308,0,19.049652,0
2004/3/1 16:45,0.126063025,0,0.217672071,0,18.506052,0,31.95426,0
2004/3/1 17:00,0.092091989,0,0.054418038,0,13.519104,0,7.988568,0
2004/3/1 17:15,0.114792997,0,0.005313025,0,16.851612,0,0.779952,0
2004/3/1 17:30,0.126223978,0,0.00692297,0,18.52968,0,1.016292,0
2004/3/1 17:45,0.126223978,0,0,0,18.52968,0,0,0
2004/3/1 18:00,0.126223978,0,0,0,18.52968,0,0,0
2004/3/1 18:15,0.126223978,0,0,0,18.52968,0,0,0
2004/3/1 18:30,0.126223978,0,0,0,18.52968,0,0,0
2004/3/1 18:45,0.126223978,0,0,0,18.52968,0,0,0
2004/3/1 19:00,0.126384932,0,0.015295014,0,18.553308,0,2.245308,0
2004/3/1 19:15,0.126384932,0,0,0,18.553308,0,0,0
2004/3/1 19:30,0.126545886,0,0,0,18.576936,0,0,0
2004/3/1 19:45,0.126545886,0,0,0,18.576936,0,0,0
2004/3/1 20:00,0.126384932,0,0,0,18.553308,0,0,0
2004/3/1 20:15,0.126867956,0,0,0,18.624216,0,0,0
2004/3/1 20:30,0.126706921,0,0,0,18.600576,0,0,0
2004/3/1 20:45,0.127190027,0,0,0,18.671496,0,0,0
2004/3/1 21:00,0.127190027,0,0,0,18.671496,0,0,0
2004/3/1 21:15,0.127351063,0,0.023506022,0,18.695136,0,3.450684,0
2004/3/1 21:30,0.127028992,0,0.13041,0,18.647856,0,19.144188,0
2004/3/1 21:45,0.126867956,0,0,0,18.624216,0,0,0
2004/3/1 22:00,0.126706921,0,0,0,18.600576,0,0,0
2004/3/1 22:15,0.126545886,0,0,0,18.576936,0,0,0
2004/3/1 22:30,0.126867956,0,0,0,18.624216,0,0,0
2004/3/1 22:45,0.127028992,0,0,0,18.647856,0,0,0
2004/3/1 23:00,0.126867956,0,0.432928937,0,18.624216,0,63.553968,0
2004/3/1 23:15,0.126867956,0,0,0,18.624216,0,0,0
2004/3/1 23:30,0.126706921,0,0,0,18.600576,0,0,0
2004/3/1 23:45,0.126706921,0,0,0,18.600576,0,0,0
2004/3/2 0:00,0.126706921,0,0,0,18.600576,0,0,0
2004/3/2 0:15,0.126545886,0,0,0,18.576936,0,0,0
2004/3/2 0:30,0.126545886,0,0,0,18.576936,0,0,0
2004/3/2 0:45,0.126706921,0,0,0,18.600576,0,0,0
2004/3/2 1:00,0.126706921,0,0,0,18.600576,0,0,0
2004/3/2 1:15,0.126867956,0,0,0,18.624216,0,0,0
2004/3/2 1:30,0.126867956,0,0,0,18.624216,0,0,0
2004/3/2 1:45,0.127028992,0,0,0,18.647856,0,0,0
2004/3/2 2:00,0.127028992,0,0,0,18.647856,0,0,0
2004/3/2 2:15,0.127028992,0,0,0,18.647856,0,0,0
2004/3/2 2:30,0.127028992,0,0,0,18.647856,0,0,0
2004/3/2 2:45,0.127351063,0,0.005635014,0,18.695136,0,0.82722,0
2004/3/2 3:00,0.127190027,0,0,0,18.671496,0,0,0
2004/3/2 3:15,0.127351063,0,0.010143025,0,18.695136,0,1.488996,0
2004/3/2 3:30,0.127028992,0,0,0,18.647856,0,0,0
2004/3/2 3:45,0.127351063,0,0,0,18.695136,0,0,0
2004/3/2 4:00,0.127190027,0,0,0,18.671496,0,0,0
2004/3/2 4:15,0.127351063,0,0,0,18.695136,0,0,0
2004/3/2 4:30,0.127351063,0,0,0,18.695136,0,0,0
2004/3/2 4:45,0.127190027,0,0,0,18.671496,0,0,0
2004/3/2 5:00,0.127351063,0,0.015617003,0,18.695136,0,2.292576,0
2004/3/2 5:15,0.127190027,0,0,0,18.671496,0,0,0
2004/3/2 5:30,0.127028992,0,0,0,18.647856,0,0,0
2004/3/2 5:45,0.126706921,0,0,0,18.600576,0,0,0
2004/3/2 6:00,0.126867956,0,0,0,18.624216,0,0,0
2004/3/2 6:15,0.126706921,0,0,0,18.600576,0,0,0
2004/3/2 6:30,0.127028992,0,0,0,18.647856,0,0,0
2004/3/2 6:45,0.127190027,0,0,0,18.671496,0,0,0
2004/3/2 7:00,0.126867956,0,0.009981989,0,18.624216,0,1.465356,0
2004/3/2 7:15,0.127028992,0,0,0,18.647856,0,0,0
2004/3/2 7:30,0.127028992,0,0,0,18.647856,0,0,0
2004/3/2 7:45,0.126867956,0,0,0,18.624216,0,0,0
2004/3/2 8:00,0.126706921,0,0.019803025,0,18.600576,0,2.907084,0
2004/3/2 8:15,0.126063025,0,0,0,18.506052,0,0,0
2004/3/2 8:30,0.126223978,0,0.454503025,0,18.52968,0,66.721044,0
2004/3/2 8:45,0.126223978,0,0.278529973,0,18.52968,0,40.8882,0
2004/3/2 9:00,0.126223978,0,0.195614959,0,18.52968,0,28.716276,0
2004/3/2 9:15,0.075992044,0,0,0,11.155632,0,0,0
2004/3/2 9:30,0.111573025,0,0,0,16.37892,0,0,0
2004/3/2 9:45,0.090481962,0,0,0,13.282752,0,0,0
2004/3/2 10:00,0.058121035,0,0.214774005,0,8.532168,0,31.528824,0
2004/3/2 10:15,0.088067003,0,0,0,12.928236,0,0,0
2004/3/2 10:30,0.113021935,0,0.005957003,0,16.59162,0,0.874488,0
2004/3/2 10:45,0.096760954,0,0.06069703,0,14.204508,0,8.910324,0
2004/3/2 11:00,0.097082943,0,0,0,14.251776,0,0,0
2004/3/2 11:15,0.100302997,0,0,0,14.72448,0,0,0
2004/3/2 11:30,0.092897003,0,0,0,13.63728,0,0,0
2004/3/2 11:45,0.091930954,0,0,0,13.495464,0,0,0
2004/3/2 12:00,0.100302997,0,0.015778038,0,14.72448,0,2.316216,0
2004/3/2 12:15,0.096439046,0,0.005957003,0,14.157252,0,0.874488,0
2004/3/2 12:30,0.094184959,0,0,0,13.826352,0,0,0
2004/3/2 12:45,0.080821962,0,0,0,11.864664,0,0,0
2004/3/2 13:00,0.122037956,0,0,0,17.915172,0,0,0
2004/3/2 13:15,0.098048992,0,0.006118038,0,14.393592,0,0.898128,0
2004/3/2 13:30,0.097727084,0,0,0,14.346336,0,0,0
2004/3/2 13:45,0.100624986,0,0,0,14.771748,0,0,0
2004/3/2 14:00,0.102557003,0,0.005957003,0,15.055368,0,0.874488,0
2004/3/2 14:15,0.083719946,0,0,0,12.290088,0,0,0
2004/3/2 14:30,0.110606975,0,0.009821035,0,16.237104,0,1.441728,0
2004/3/2 14:45,0.086456975,0,0,0,12.691884,0,0,0
2004/3/2 15:00,0.099497984,0,0,0,14.606304,0,0,0
2004/3/2 15:15,0.109641008,0,0,0,16.0953,0,0,0
2004/3/2 15:30,0.100463951,0,0,0,14.748108,0,0,0
2004/3/2 15:45,0.124452997,0,0.015778038,0,18.2697,0,2.316216,0
2004/3/2 16:00,0.098209946,0,0,0,14.41722,0,0,0
2004/3/2 16:15,0.109802044,0,0,0,16.11894,0,0,0
2004/3/2 16:30,0.110285068,0,0,0,16.189848,0,0,0
2004/3/2 16:45,0.101107929,0,0,0,14.842644,0,0,0
2004/3/2 17:00,0.110607057,0,0.021252016,0,16.237116,0,3.119796,0
2004/3/2 17:15,0.110768011,0,0,0,16.260744,0,0,0
2004/3/2 17:30,0.110606975,0,0,0,16.237104,0,0,0
2004/3/2 17:45,0.110767929,0,0,0,16.260732,0,0,0
2004/3/2 18:00,0.110768011,0,0,0,16.260744,0,0,0
2004/3/2 18:15,0.126384932,0,0,0,18.553308,0,0,0
2004/3/2 18:30,0.126545886,0,0,0,18.576936,0,0,0
2004/3/2 18:45,0.126223978,0,0.015617003,0,18.52968,0,2.292576,0
2004/3/2 19:00,0.126545886,0,0,0,18.576936,0,0,0
2004/3/2 19:15,0.126384932,0,0,0,18.553308,0,0,0
2004/3/2 19:30,0.126384932,0,0.036225041,0,18.553308,0,5.317836,0
2004/3/2 19:45,0.126223978,0,0.153916022,0,18.52968,0,22.594872,0
2004/3/2 20:00,0.126223978,0,0.014650954,0,18.52968,0,2.15076,0
2004/3/2 20:15,0.126384932,0,0,0,18.553308,0,0,0
2004/3/2 20:30,0.126706921,0,0.270641035,0,18.600576,0,39.730104,0
2004/3/2 20:45,0.126706921,0,0.942493978,0,18.600576,0,138.358116,0
2004/3/2 21:00,0.126706921,0,0.065044087,0,18.600576,0,9.548472,0
2004/3/2 21:15,0.126706921,0,0,0,18.600576,0,0,0
2004/3/2 21:30,0.126706921,0,0,0,18.600576,0,0,0
2004/3/2 21:45,0.126545886,0,0.086456975,0,18.576936,0,12.691884,0
2004/3/2 22:00,0.126706921,0,0.04411406,0,18.600576,0,6.475944,0
2004/3/2 22:15,0.126706921,0,0.021574005,0,18.600576,0,3.167064,0
2004/3/2 22:30,0.126545886,0,0,0,18.576936,0,0,0
2004/3/2 22:45,0.126867956,0,0.02141297,0,18.624216,0,3.143424,0
2004/3/2 23:00,0.126706921,0,0.234255041,0,18.600576,0,34.38864,0
2004/3/2 23:15,0.126706921,0,0,0,18.600576,0,0,0
2004/3/2 23:30,0.126706921,0,0.067942071,0,18.600576,0,9.973896,0
2004/3/2 23:45,0.127028992,0,0.508599074,0,18.647856,0,74.662344,0
2004/3/3 0:00,0.127028992,0,0.000483025,0,18.647856,0,0.070908,0
2004/3/3 0:15,0.124614033,0,0,0,18.29334,0,0,0
2004/3/3 0:30,0.127028992,0,0,0,18.647856,0,0,0
2004/3/3 0:45,0.127190027,0,0,0,18.671496,0,0,0
2004/3/3 1:00,0.127351063,0,0,0,18.695136,0,0,0
2004/3/3 1:15,0.127190027,0,0,0,18.671496,0,0,0
2004/3/3 1:30,0.127351063,0,0,0,18.695136,0,0,0
2004/3/3 1:45,0.127028992,0,0,0,18.647856,0,0,0
2004/3/3 2:00,0.127028992,0,0,0,18.647856,0,0,0
2004/3/3 2:15,0.127028992,0,0,0,18.647856,0,0,0
2004/3/3 2:30,0.127028992,0,0,0,18.647856,0,0,0
2004/3/3 2:45,0.127190027,0,0,0,18.671496,0,0,0
2004/3/3 3:00,0.127351063,0,0,0,18.695136,0,0,0
2004/3/3 3:15,0.127190027,0,0,0,18.671496,0,0,0
2004/3/3 3:30,0.127190027,0,0,0,18.671496,0,0,0
2004/3/3 3:45,0.127028992,0,0,0,18.647856,0,0,0
2004/3/3 4:00,0.127028992,0,0,0,18.647856,0,0,0
2004/3/3 4:15,0.127190027,0,0,0,18.671496,0,0,0
2004/3/3 4:30,0.127028992,0,0,0,18.647856,0,0,0
2004/3/3 4:45,0.127190027,0,0,0,18.671496,0,0,0
2004/3/3 5:00,0.127190027,0,0,0,18.671496,0,0,0
2004/3/3 5:15,0.127028992,0,0.005313025,0,18.647856,0,0.779952,0
2004/3/3 5:30,0.127028992,0,0,0,18.647856,0,0,0
2004/3/3 5:45,0.126867956,0,0.009498965,0,18.624216,0,1.394448,0
2004/3/3 6:00,0.126867956,0,0.000483025,0,18.624216,0,0.070908,0
2004/3/3 6:15,0.127028992,0,0,0,18.647856,0,0,0
2004/3/3 6:30,0.127028992,0,0,0,18.647856,0,0,0
2004/3/3 6:45,0.127028992,0,0,0,18.647856,0,0,0
2004/3/3 7:00,0.126867956,0,0,0,18.624216,0,0,0
2004/3/3 7:15,0.126867956,0,0.018192997,0,18.624216,0,2.670732,0
2004/3/3 7:30,0.126867956,0,0.022861962,0,18.624216,0,3.356136,0
2004/3/3 7:45,0.126706921,0,1.61E-04,0,18.600576,0,0.02364,0
2004/3/3 8:00,0.126706921,0,0,0,18.600576,0,0,0
2004/3/3 8:15,0.126867956,0,0.016100027,0,18.624216,0,2.363484,0
2004/3/3 8:30,0.126706921,0,0,0,18.600576,0,0,0
2004/3/3 8:45,0.126867956,0,0,0,18.624216,0,0,0
2004/3/3 9:00,0.126545886,0,0,0,18.576936,0,0,0
2004/3/3 9:15,0.126706921,0,0,0,18.600576,0,0,0
2004/3/3 9:30,0.126867956,0,0,0,18.624216,0,0,0
2004/3/3 9:45,0.126545886,0,0.058765014,0,18.576936,0,8.626704,0
2004/3/3 10:00,0.063595014,0,0.06279,0,9.335748,0,9.217572,0
2004/3/3 10:15,0.064400027,0,0,0,9.453924,0,0,0
2004/3/3 10:30,0.064560981,0,0,0,9.477552,0,0,0
2004/3/3 10:45,0.081788011,0,0,0,12.00648,0,0,0
2004/3/3 11:00,0.090642997,0,0,0,13.306392,0,0,0
2004/3/3 11:15,0.082592943,0,0,0,12.124644,0,0,0
2004/3/3 11:30,0.063917003,0,0,0,9.383016,0,0,0
2004/3/3 11:45,0.063755967,0,0,0,9.359376,0,0,0
2004/3/3 12:00,0.063433978,0,0.02141297,0,9.312108,0,3.143424,0
2004/3/3 12:15,0.075991962,0,0.163415068,0,11.15562,0,23.989332,0
2004/3/3 12:30,0.081626975,0,0.209300027,0,11.98284,0,30.725244,0
2004/3/3 12:45,0.079050981,0,0.110768011,0,11.604684,0,16.260744,0
2004/3/3 13:00,0.078245967,0,0,0,11.486508,0,0,0
2004/3/3 13:15,0.067136975,0,0.00692297,0,9.855708,0,1.016292,0
2004/3/3 13:30,0.061662997,0,0,0,9.052128,0,0,0
2004/3/3 13:45,0.102235014,0,0,0,15.0081,0,0,0
2004/3/3 14:00,0.075669973,0,0,0,11.108352,0,0,0
2004/3/3 14:15,0.081626975,0,0.009821035,0,11.98284,0,1.441728,0
2004/3/3 14:30,0.109962916,0,0,0,16.142556,0,0,0
2004/3/3 14:45,0.087100954,0,0,0,12.78642,0,0,0
2004/3/3 15:00,0.110928965,0,0,0,16.284372,0,0,0
2004/3/3 15:15,0.110284986,0,0,0,16.189836,0,0,0
2004/3/3 15:30,0.101751989,0,0,0,14.937192,0,0,0
2004/3/3 15:45,0.126223978,0,0.015778038,0,18.52968,0,2.316216,0
2004/3/3 16:00,0.126223978,0,0,0,18.52968,0,0,0
2004/3/3 16:15,0.126223978,0,0,0,18.52968,0,0,0
2004/3/3 16:30,0.109962997,0,0,0,16.142568,0,0,0
2004/3/3 16:45,0.126223978,0,0,0,18.52968,0,0,0
2004/3/3 17:00,0.126223978,0,0,0,18.52968,0,0,0
2004/3/3 17:15,0.126063025,0,0,0,18.506052,0,0,0
2004/3/3 17:30,0.126223978,0,0,0,18.52968,0,0,0
2004/3/3 17:45,0.126223978,0,0,0,18.52968,0,0,0
2004/3/3 18:00,0.126545886,0,0,0,18.576936,0,0,0
2004/3/3 18:15,0.126545886,0,0,0,18.576936,0,0,0
2004/3/3 18:30,0.126706921,0,0.02141297,0,18.600576,0,3.143424,0
2004/3/3 18:45,0.126545886,0,0,0,18.576936,0,0,0
2004/3/3 19:00,0.126706921,0,0,0,18.600576,0,0,0
2004/3/3 19:15,0.126706921,0,0,0,18.600576,0,0,0
2004/3/3 19:30,0.126384932,0,0,0,18.553308,0,0,0
2004/3/3 19:45,0.126545886,0,0.009821035,0,18.576936,0,1.441728,0
2004/3/3 20:00,0.126223978,0,0,0,18.52968,0,0,0
2004/3/3 20:15,0.126545886,0,0,0,18.576936,0,0,0
2004/3/3 20:30,0.126545886,0,0,0,18.576936,0,0,0
2004/3/3 20:45,0.126706921,0,0,0,18.600576,0,0,0
2004/3/3 21:00,0.126706921,0,0,0,18.600576,0,0,0
2004/3/3 21:15,0.126706921,0,0.017065995,0,18.600576,0,2.505288,0
2004/3/3 21:30,0.126867956,0,0.15182297,0,18.624216,0,22.287612,0
2004/3/3 21:45,0.126867956,0,0.305739074,0,18.624216,0,44.882496,0
2004/3/3 22:00,0.127028992,0,0,0,18.647856,0,0,0
2004/3/3 22:15,0.127028992,0,0,0,18.647856,0,0,0
2004/3/3 22:30,0.127351063,0,0,0,18.695136,0,0,0
2004/3/3 22:45,0.127190027,0,0,0,18.671496,0,0,0
2004/3/3 23:00,0.127190027,0,0,0,18.671496,0,0,0
2004/3/3 23:15,0.127028992,0,0.110123951,0,18.647856,0,16.166196,0
2004/3/3 23:30,0.127028992,0,0.006600981,0,18.647856,0,0.969024,0
2004/3/3 23:45,0.127190027,0,0,0,18.671496,0,0,0
2004/3/4 0:00,0.127028992,0,0,0,18.647856,0,0,0
2004/3/4 0:15,0.127028992,0,0,0,18.647856,0,0,0
2004/3/4 0:30,0.127028992,0,0,0,18.647856,0,0,0
2004/3/4 0:45,0.127028992,0,0,0,18.647856,0,0,0
2004/3/4 1:00,0.127190027,0,0,0,18.671496,0,0,0
2004/3/4 1:15,0.127351063,0,0,0,18.695136,0,0,0
2004/3/4 1:30,0.127351063,0,0,0,18.695136,0,0,0
2004/3/4 1:45,0.127512098,0,0.00966,0,18.718776,0,1.418088,0
2004/3/4 2:00,0.127351063,0,0,0,18.695136,0,0,0
2004/3/4 2:15,0.127512098,0,0,0,18.718776,0,0,0
2004/3/4 2:30,0.127512098,0,0,0,18.718776,0,0,0
2004/3/4 2:45,0.127512098,0,0,0,18.718776,0,0,0
2004/3/4 3:00,0.127512098,0,0,0,18.718776,0,0,0
2004/3/4 3:15,0.127512098,0,0.021252016,0,18.718776,0,3.119796,0
2004/3/4 3:30,0.127351063,0,0.022701008,0,18.695136,0,3.332508,0
2004/3/4 3:45,0.127351063,0,0,0,18.695136,0,0,0
2004/3/4 4:00,0.127512098,0,0,0,18.718776,0,0,0
2004/3/4 4:15,0.127351063,0,0,0,18.695136,0,0,0
2004/3/4 4:30,0.127351063,0,0,0,18.695136,0,0,0
2004/3/4 4:45,0.127351063,0,0,0,18.695136,0,0,0
2004/3/4 5:00,0.127351063,0,0,0,18.695136,0,0,0
2004/3/4 5:15,0.127351063,0,0,0,18.695136,0,0,0
2004/3/4 5:30,0.127351063,0,0,0,18.695136,0,0,0
2004/3/4 5:45,0.127512098,0,0,0,18.718776,0,0,0
2004/3/4 6:00,0.127512098,0,0,0,18.718776,0,0,0
2004/3/4 6:15,0.127673052,0,0,0,18.742404,0,0,0
2004/3/4 6:30,0.127673052,0,0,0,18.742404,0,0,0
2004/3/4 6:45,0.127673052,0,0,0,18.742404,0,0,0
2004/3/4 7:00,0.127673052,0,0,0,18.742404,0,0,0
2004/3/4 7:15,0.127512098,0,0.021574005,0,18.718776,0,3.167064,0
2004/3/4 7:30,0.127512098,0,0.022701008,0,18.718776,0,3.332508,0
2004/3/4 7:45,0.127351063,0,0.018676022,0,18.695136,0,2.74164,0
2004/3/4 8:00,0.127351063,0,0,0,18.695136,0,0,0
2004/3/4 8:15,0.127351063,0,0,0,18.695136,0,0,0
2004/3/4 8:30,0.127028992,0,0.072610954,0,18.647856,0,10.659288,0
2004/3/4 8:45,0.126867956,0,0,0,18.624216,0,0,0
2004/3/4 9:00,0.127028992,0,0,0,18.647856,0,0,0
2004/3/4 9:15,0.126867956,0,0.00692297,0,18.624216,0,1.016292,0
2004/3/4 9:30,0.127028992,0,0,0,18.647856,0,0,0
2004/3/4 9:45,0.126867956,0,0.065365995,0,18.624216,0,9.595728,0
2004/3/4 10:00,0.126867956,0,0,0,18.624216,0,0,0
2004/3/4 10:15,0.126867956,0,0,0,18.624216,0,0,0
2004/3/4 10:30,0.126867956,0,0,0,18.624216,0,0,0
2004/3/4 10:45,0.126867956,0,0,0,18.624216,0,0,0
2004/3/4 11:00,0.127028992,0,0,0,18.647856,0,0,0
2004/3/4 11:15,0.126867956,0,0,0,18.624216,0,0,0
2004/3/4 11:30,0.126867956,0,0,0,18.624216,0,0,0
2004/3/4 11:45,0.127028992,0,0,0,18.647856,0,0,0
2004/3/4 12:00,0.127028992,0,0.009499046,0,18.647856,0,1.39446,0
2004/3/4 12:15,0.126867956,0,0.214452016,0,18.624216,0,31.481556,0
2004/3/4 12:30,0.126706921,0,0.454503025,0,18.600576,0,66.721044,0
2004/3/4 12:45,0.126706921,0,0,0,18.600576,0,0,0
2004/3/4 13:00,0.109962916,0,0,0,16.142556,0,0,0
2004/3/4 13:15,0.126384932,0,0,0,18.553308,0,0,0
2004/3/4 13:30,0.126384932,0,0,0,18.553308,0,0,0
2004/3/4 13:45,0.126223978,0,0,0,18.52968,0,0,0
2004/3/4 14:00,0.126384932,0,0,0,18.553308,0,0,0
2004/3/4 14:15,0.126384932,0,0,0,18.553308,0,0,0
2004/3/4 14:30,0.126384932,0,0,0,18.553308,0,0,0
2004/3/4 14:45,0.126384932,0,0,0,18.553308,0,0,0
2004/3/4 15:00,0.126384932,0,0,0,18.553308,0,0,0
2004/3/4 15:15,0.126545886,0,0,0,18.576936,0,0,0
2004/3/4 15:30,0.126545886,0,0,0,18.576936,0,0,0
2004/3/4 15:45,0.126706921,0,0,0,18.600576,0,0,0
2004/3/4 16:00,0.126706921,0,0,0,18.600576,0,0,0
2004/3/4 16:15,0.126706921,0,0.015938992,0,18.600576,0,2.339844,0
2004/3/4 16:30,0.126545886,0,0,0,18.576936,0,0,0
2004/3/4 16:45,0.126706921,0,0,0,18.600576,0,0,0
2004/3/4 17:00,0.126706921,0,0,0,18.600576,0,0,0
2004/3/4 17:15,0.126867956,0,0,0,18.624216,0,0,0
2004/3/4 17:30,0.126867956,0,0,0,18.624216,0,0,0
2004/3/4 17:45,0.126867956,0,0,0,18.624216,0,0,0
2004/3/4 18:00,0.126867956,0,0.021895995,0,18.624216,0,3.214332,0
2004/3/4 18:15,0.127190027,0,0.022379019,0,18.671496,0,3.28524,0
2004/3/4 18:30,0.127028992,0,0,0,18.647856,0,0,0
2004/3/4 18:45,0.127190027,0,0,0,18.671496,0,0,0
2004/3/4 19:00,0.127351063,0,0,0,18.695136,0,0,0
2004/3/4 19:15,0.127190027,0,0.182252044,0,18.671496,0,26.7546,0
2004/3/4 19:30,0.127351063,0,0,0,18.695136,0,0,0
2004/3/4 19:45,0.127351063,0,0,0,18.695136,0,0,0
2004/3/4 20:00,0.127190027,0,0.005795967,0,18.671496,0,0.850848,0
2004/3/4 20:15,0.127028992,0,0.50441297,0,18.647856,0,74.047824,0
2004/3/4 20:30,0.127351063,0,0.795662044,0,18.695136,0,116.803188,0
2004/3/4 20:45,0.127351063,0,0.08275406,0,18.695136,0,12.148296,0
2004/3/4 21:00,0.127351063,0,0.04411406,0,18.695136,0,6.475944,0
2004/3/4 21:15,0.127673052,0,0.043631035,0,18.742404,0,6.405036,0
2004/3/4 21:30,0.127512016,0,0.250354986,0,18.718764,0,36.752112,0
2004/3/4 21:45,0.127512098,0,0.043148011,0,18.718776,0,6.334128,0
2004/3/4 22:00,0.127834005,0,0.065365995,0,18.766032,0,9.595728,0
2004/3/4 22:15,0.127673052,0,0.000321989,0,18.742404,0,0.047268,0
2004/3/4 22:30,0.127512016,0,0,0,18.718764,0,0,0
2004/3/4 22:45,0.127512098,0,0.06488297,0,18.718776,0,9.52482,0
2004/3/4 23:00,0.127512098,0,0.000483025,0,18.718776,0,0.070908,0
2004/3/4 23:15,0.127512098,0,0.570583978,0,18.718776,0,83.761728,0
2004/3/4 23:30,0.127190027,0,0.07245,0,18.671496,0,10.63566,0
2004/3/4 23:45,0.127028992,0,1.61E-04,0,18.647856,0,0.02364,0
2004/3/5 0:00,0.127028992,0,0,0,18.647856,0,0,0
2004/3/5 0:15,0.127351063,0,0,0,18.695136,0,0,0
2004/3/5 0:30,0.127351063,0,0,0,18.695136,0,0,0
2004/3/5 0:45,0.127190027,0,0,0,18.671496,0,0,0
2004/3/5 1:00,0.127190027,0,0,0,18.671496,0,0,0
2004/3/5 1:15,0.097405014,0,0,0,14.299056,0,0,0
2004/3/5 1:30,0.12558,0,0,0,18.435144,0,0,0
2004/3/5 1:45,0.127190027,0,0,0,18.671496,0,0,0
2004/3/5 2:00,0.118979019,0,0,0,17.46612,0,0,0
2004/3/5 2:15,0.091931035,0,0,0,13.495476,0,0,0
2004/3/5 2:30,0.127028992,0,0,0,18.647856,0,0,0
2004/3/5 2:45,0.11109,0,0,0,16.308012,0,0,0
2004/3/5 3:00,0.127028992,0,0,0,18.647856,0,0,0
2004/3/5 3:15,0.101591035,0,0,0,14.913564,0,0,0
2004/3/5 3:30,0.127190027,0,0,0,18.671496,0,0,0
2004/3/5 3:45,0.118817984,0,0,0,17.44248,0,0,0
2004/3/5 4:00,0.116886049,0,0,0,17.158872,0,0,0
2004/3/5 4:15,0.127190027,0,0,0,18.671496,0,0,0
2004/3/5 4:30,0.102557003,0,0,0,15.055368,0,0,0
2004/3/5 4:45,0.127028992,0,0,0,18.647856,0,0,0
2004/3/5 5:00,0.10899703,0,0,0,16.000764,0,0,0
2004/3/5 5:15,0.127190027,0,0,0,18.671496,0,0,0
2004/3/5 5:30,0.121716049,0,0,0,17.867916,0,0,0
2004/3/5 5:45,0.108675041,0,0,0,15.953496,0,0,0
2004/3/5 6:00,0.127512016,0,0,0,18.718764,0,0,0
2004/3/5 6:15,0.109802044,0,0,0,16.11894,0,0,0
2004/3/5 6:30,0.121072071,0,0.015778038,0,17.77338,0,2.316216,0
2004/3/5 6:45,0.127512098,0,0,0,18.718776,0,0,0
2004/3/5 7:00,0.127673052,0,0,0,18.742404,0,0,0
2004/3/5 7:15,0.127512098,0,0,0,18.718776,0,0,0
2004/3/5 7:30,0.103201063,0,0,0,15.149916,0,0,0
2004/3/5 7:45,0.127190027,0,0,0,18.671496,0,0,0
2004/3/5 8:00,0.085168937,0,0.17388,0,12.5028,0,25.525584,0
2004/3/5 8:15,0.126706921,0,0.000483025,0,18.600576,0,0.070908,0
2004/3/5 8:30,0.103200899,0,0,0,15.149892,0,0,0
2004/3/5 8:45,0.108514005,0,0.005313025,0,15.929856,0,0.779952,0
2004/3/5 9:00,0.116402943,0,0.006440027,0,17.087952,0,0.945396,0
2004/3/5 9:15,0.107386921,0,0,0,15.7644,0,0,0
2004/3/5 9:30,0.104649973,0,0,0,15.362616,0,0,0
2004/3/5 9:45,0.119783951,0,0,0,17.584284,0,0,0
2004/3/5 10:00,0.109641008,0,0.159229046,0,16.0953,0,23.374824,0
2004/3/5 10:15,0.126062943,0,0,0,18.50604,0,0,0
2004/3/5 10:30,0.126384932,0,0.568007984,0,18.553308,0,83.383572,0
2004/3/5 10:45,0.126384932,0,0.103362016,0,18.553308,0,15.173544,0
2004/3/5 11:00,0.126223978,0,0,0,18.52968,0,0,0
2004/3/5 11:15,0.126384932,0,0,0,18.553308,0,0,0
2004/3/5 11:30,0.126384932,0,0,0,18.553308,0,0,0
2004/3/5 11:45,0.126223978,0,0,0,18.52968,0,0,0
2004/3/5 12:00,0.126384932,0,0.028658011,0,18.553308,0,4.206996,0
2004/3/5 12:15,0.126223978,0,0,0,18.52968,0,0,0
2004/3/5 12:30,0.126384932,0,0.128478065,0,18.553308,0,18.86058,0
2004/3/5 12:45,0.126384932,0,0.051520054,0,18.553308,0,7.563144,0
2004/3/5 13:00,0.126223978,0,0.096438965,0,18.52968,0,14.15724,0
2004/3/5 13:15,0.126384932,0,0,0,18.553308,0,0,0
2004/3/5 13:30,0.126545886,0,0,0,18.576936,0,0,0
2004/3/5 13:45,0.126384932,0,0,0,18.553308,0,0,0
2004/3/5 14:00,0.101268965,0,0,0,14.866284,0,0,0